SWA223 KLAX-KLAS

Flight info

Callsign SWA223
Flight time 0h 48m
Altitude 25000
Route OSHNN1 MISEN RNDRZ4
Aircraft B738/M-SADE2E3GIJ4RWZ/LB1D1

Departure

Time 2026-05-06 03:01
Airport Los Angeles International Airport (KLAX)

Arrival

Time 2026-05-06 03:49
Airport Harry Reid International Airport (KLAS)
Time Latitude Longitude Altitude Speed Heading
2026-05-06 02:34 33.94791 -118.40177 128 ft 0 kts 141°
2026-05-06 02:44 33.94796 -118.40182 128 ft 4 kts 143°
2026-05-06 02:44 33.94818 -118.40201 122 ft 4 kts 143°
2026-05-06 02:44 33.94832 -118.40221 122 ft 1 kts 105°
2026-05-06 02:45 33.94832 -118.40222 124 ft 0 kts 104°
2026-05-06 02:52 33.94832 -118.40194 126 ft 8 kts 87°
2026-05-06 02:52 33.94850 -118.40092 126 ft 16 kts 54°
2026-05-06 02:53 33.94914 -118.40110 125 ft 10 kts 273°
2026-05-06 02:53 33.94908 -118.40195 128 ft 11 kts 263°
2026-05-06 02:53 33.94896 -118.40290 128 ft 13 kts 262°
2026-05-06 02:53 33.94880 -118.40446 128 ft 26 kts 262°
2026-05-06 02:54 33.94850 -118.40708 128 ft 37 kts 265°
2026-05-06 02:54 33.94821 -118.41020 127 ft 24 kts 263°
2026-05-06 02:54 33.94800 -118.41222 125 ft 25 kts 261°
2026-05-06 02:54 33.94775 -118.41361 124 ft 13 kts 228°
2026-05-06 02:55 33.94688 -118.41318 124 ft 21 kts 121°
2026-05-06 02:55 33.94531 -118.41263 127 ft 31 kts 176°
2026-05-06 02:55 33.94277 -118.41222 126 ft 40 kts 174°
2026-05-06 02:55 33.93998 -118.41181 124 ft 41 kts 172°
2026-05-06 02:56 33.93770 -118.41104 125 ft 23 kts 115°
2026-05-06 02:56 33.93780 -118.40938 128 ft 28 kts 84°
2026-05-06 02:56 33.93813 -118.40645 125 ft 44 kts 82°
2026-05-06 02:56 33.93857 -118.40219 128 ft 56 kts 83°
2026-05-06 02:57 33.93906 -118.39743 128 ft 57 kts 83°
2026-05-06 02:57 33.93953 -118.39276 128 ft 56 kts 82°
2026-05-06 02:57 33.94001 -118.38804 126 ft 56 kts 83°
2026-05-06 02:57 33.94047 -118.38346 128 ft 51 kts 83°
2026-05-06 02:58 33.94076 -118.38092 128 ft 29 kts 82°
2026-05-06 02:58 33.94075 -118.37962 114 ft 2 kts 164°
2026-05-06 02:58 33.94053 -118.37969 141 ft 6 kts 205°
2026-05-06 02:58 33.93992 -118.38010 126 ft 14 kts 238°
2026-05-06 02:59 33.93980 -118.38073 128 ft 0 kts 262°
2026-05-06 03:00 33.93980 -118.38075 128 ft 2 kts 263°
2026-05-06 03:00 33.93972 -118.38149 128 ft 17 kts 262°
2026-05-06 03:00 33.93930 -118.38548 128 ft 87 kts 263°
2026-05-06 03:00 33.93829 -118.39559 128 ft 154 kts 263°
2026-05-06 03:01 33.93657 -118.41003 450 ft 187 kts 262°
2026-05-06 03:01 33.93456 -118.42551 1423 ft 179 kts 262°
2026-05-06 03:01 33.93286 -118.44008 2191 ft 169 kts 265°
2026-05-06 03:01 33.93172 -118.45430 2951 ft 175 kts 264°
2026-05-06 03:02 33.92858 -118.46876 3596 ft 181 kts 249°
2026-05-06 03:02 33.92375 -118.48293 4290 ft 185 kts 249°
2026-05-06 03:02 33.91876 -118.49742 4972 ft 189 kts 249°
2026-05-06 03:02 33.91367 -118.51221 5552 ft 194 kts 249°
2026-05-06 03:03 33.90846 -118.52732 5900 ft 196 kts 249°
2026-05-06 03:03 33.90324 -118.54249 6150 ft 196 kts 250°
2026-05-06 03:03 33.89799 -118.55770 6400 ft 198 kts 250°
2026-05-06 03:03 33.89268 -118.57310 6680 ft 201 kts 250°
2026-05-06 03:04 33.88755 -118.58797 7391 ft 194 kts 251°
2026-05-06 03:04 33.87956 -118.60168 7783 ft 210 kts 212°
2026-05-06 03:04 33.86555 -118.60731 8323 ft 217 kts 192°
2026-05-06 03:04 33.85005 -118.61086 8631 ft 237 kts 189°
2026-05-06 03:05 33.83357 -118.60848 8960 ft 250 kts 152°
2026-05-06 03:05 33.82013 -118.59525 9558 ft 252 kts 123°
2026-05-06 03:05 33.81299 -118.57574 10110 ft 258 kts 92°
2026-05-06 03:05 33.81518 -118.55464 10545 ft 263 kts 64°
2026-05-06 03:06 33.82595 -118.53690 11078 ft 267 kts 37°
2026-05-06 03:06 33.84116 -118.52353 11702 ft 274 kts 37°
2026-05-06 03:06 33.85623 -118.50928 12446 ft 277 kts 37°
2026-05-06 03:06 33.87141 -118.49481 13144 ft 281 kts 37°
2026-05-06 03:07 33.88679 -118.48003 13870 ft 284 kts 38°
2026-05-06 03:07 33.90231 -118.46506 14500 ft 287 kts 38°
2026-05-06 03:07 33.91797 -118.44993 15137 ft 290 kts 38°
2026-05-06 03:07 33.93268 -118.43286 15517 ft 303 kts 52°
2026-05-06 03:08 33.94491 -118.41150 15885 ft 315 kts 54°
2026-05-06 03:08 33.95755 -118.38935 16225 ft 328 kts 54°
2026-05-06 03:08 33.97082 -118.36600 16366 ft 346 kts 55°
2026-05-06 03:08 33.98477 -118.34141 16452 ft 365 kts 55°
2026-05-06 03:09 33.99949 -118.31543 16494 ft 384 kts 55°
2026-05-06 03:09 34.01489 -118.28831 16612 ft 399 kts 55°
2026-05-06 03:09 34.03067 -118.26047 17011 ft 405 kts 55°
2026-05-06 03:09 34.04662 -118.23232 17601 ft 407 kts 55°
2026-05-06 03:10 34.06261 -118.20407 18113 ft 410 kts 55°
2026-05-06 03:10 34.07869 -118.17566 18605 ft 412 kts 55°
2026-05-06 03:10 34.09491 -118.14697 19085 ft 414 kts 55°
2026-05-06 03:10 34.11116 -118.11820 19557 ft 416 kts 55°
2026-05-06 03:11 34.12747 -118.08930 20025 ft 418 kts 55°
2026-05-06 03:11 34.14385 -118.06026 20499 ft 419 kts 55°
2026-05-06 03:11 34.16030 -118.03106 20953 ft 421 kts 55°
2026-05-06 03:11 34.17659 -118.00213 21399 ft 423 kts 55°
2026-05-06 03:12 34.19317 -117.97266 21829 ft 425 kts 55°
2026-05-06 03:12 34.20979 -117.94310 22286 ft 427 kts 56°
2026-05-06 03:12 34.22650 -117.91336 22701 ft 429 kts 55°
2026-05-06 03:12 34.24329 -117.88342 23180 ft 430 kts 56°
2026-05-06 03:13 34.26011 -117.85343 23595 ft 432 kts 56°
2026-05-06 03:13 34.27696 -117.82335 23960 ft 433 kts 56°
2026-05-06 03:13 34.29388 -117.79312 24325 ft 434 kts 56°
2026-05-06 03:13 34.31082 -117.76283 24718 ft 435 kts 56°
2026-05-06 03:14 34.32778 -117.73250 24981 ft 436 kts 56°
2026-05-06 03:14 34.34479 -117.70205 25032 ft 437 kts 56°
2026-05-06 03:14 34.36193 -117.67172 25024 ft 437 kts 55°
2026-05-06 03:14 34.37915 -117.64143 25024 ft 436 kts 55°
2026-05-06 03:15 34.39633 -117.61119 25020 ft 436 kts 55°
2026-05-06 03:15 34.41348 -117.58096 25022 ft 436 kts 55°
2026-05-06 03:15 34.43066 -117.55069 25035 ft 435 kts 55°
2026-05-06 03:15 34.44779 -117.52050 25041 ft 435 kts 55°
2026-05-06 03:16 34.46497 -117.49019 25041 ft 435 kts 55°
2026-05-06 03:16 34.48212 -117.46004 25052 ft 435 kts 54°
2026-05-06 03:16 34.49996 -117.43039 25051 ft 435 kts 53°
2026-05-06 03:16 34.51774 -117.40073 25058 ft 434 kts 54°
2026-05-06 03:17 34.53543 -117.37102 25058 ft 434 kts 54°
2026-05-06 03:17 34.55308 -117.34133 25054 ft 434 kts 54°
2026-05-06 03:17 34.57071 -117.31162 25051 ft 434 kts 54°
2026-05-06 03:17 34.58832 -117.28192 25056 ft 434 kts 54°
2026-05-06 03:18 34.60592 -117.25221 25047 ft 433 kts 54°
2026-05-06 03:18 34.62326 -117.22293 25039 ft 433 kts 54°
2026-05-06 03:18 34.64083 -117.19322 25025 ft 433 kts 54°
2026-05-06 03:18 34.65840 -117.16349 25016 ft 433 kts 54°
2026-05-06 03:19 34.67594 -117.13378 25003 ft 433 kts 54°
2026-05-06 03:19 34.69346 -117.10409 24982 ft 432 kts 54°
2026-05-06 03:19 34.71097 -117.07439 24978 ft 432 kts 54°
2026-05-06 03:19 34.72846 -117.04469 24948 ft 432 kts 54°
2026-05-06 03:20 34.76346 -116.98518 24944 ft 430 kts 54°
2026-05-06 03:20 34.78038 -116.95638 24971 ft 409 kts 54°
2026-05-06 03:20 34.79659 -116.92878 24998 ft 398 kts 54°
2026-05-06 03:21 34.81281 -116.90113 24958 ft 406 kts 54°
2026-05-06 03:21 34.82936 -116.87288 24932 ft 414 kts 54°
2026-05-06 03:21 34.84625 -116.84405 24937 ft 422 kts 54°
2026-05-06 03:21 34.86342 -116.81471 24941 ft 428 kts 54°
2026-05-06 03:22 34.88081 -116.78497 24947 ft 433 kts 54°
2026-05-06 03:22 34.89827 -116.75507 24965 ft 434 kts 54°
2026-05-06 03:22 34.91579 -116.72507 24960 ft 434 kts 54°
2026-05-06 03:22 34.93326 -116.69512 24959 ft 434 kts 54°
2026-05-06 03:23 34.95072 -116.66514 24947 ft 433 kts 54°
2026-05-06 03:23 34.96816 -116.63520 24937 ft 433 kts 54°
2026-05-06 03:23 34.98561 -116.60520 24932 ft 433 kts 54°
2026-05-06 03:23 35.00301 -116.57526 24885 ft 431 kts 54°
2026-05-06 03:24 35.02019 -116.54569 24904 ft 423 kts 54°
2026-05-06 03:24 35.03702 -116.51668 24782 ft 412 kts 54°
2026-05-06 03:24 35.05356 -116.48815 24230 ft 416 kts 54°
2026-05-06 03:24 35.07046 -116.45898 23971 ft 424 kts 54°
2026-05-06 03:25 35.08758 -116.42941 23899 ft 428 kts 54°
2026-05-06 03:25 35.10524 -116.40056 23903 ft 431 kts 49°
2026-05-06 03:25 35.12602 -116.37352 23913 ft 432 kts 47°
2026-05-06 03:25 35.14634 -116.34714 23638 ft 416 kts 47°
2026-05-06 03:26 35.16596 -116.32174 22767 ft 407 kts 47°
2026-05-06 03:26 35.18523 -116.29679 21842 ft 400 kts 47°
2026-05-06 03:26 35.20415 -116.27231 20975 ft 393 kts 46°
2026-05-06 03:26 35.22270 -116.24816 20170 ft 386 kts 47°
2026-05-06 03:27 35.24046 -116.22388 19413 ft 379 kts 47°
2026-05-06 03:27 35.25754 -116.20052 19102 ft 368 kts 47°
2026-05-06 03:27 35.27473 -116.17707 18993 ft 372 kts 47°
2026-05-06 03:27 35.29200 -116.15351 18896 ft 372 kts 47°
2026-05-06 03:28 35.30928 -116.12994 18881 ft 372 kts 47°
2026-05-06 03:28 35.32650 -116.10635 18884 ft 372 kts 47°
2026-05-06 03:28 35.34379 -116.08260 18884 ft 372 kts 47°
2026-05-06 03:28 35.36091 -116.05908 18661 ft 365 kts 47°
2026-05-06 03:29 35.37784 -116.03581 17655 ft 367 kts 47°
2026-05-06 03:29 35.39473 -116.01256 16859 ft 364 kts 47°
2026-05-06 03:29 35.41144 -115.98955 16064 ft 360 kts 47°
2026-05-06 03:29 35.42802 -115.96671 15301 ft 357 kts 47°
2026-05-06 03:30 35.44445 -115.94407 14524 ft 354 kts 47°
2026-05-06 03:30 35.46073 -115.92162 13798 ft 351 kts 47°
2026-05-06 03:30 35.47683 -115.89938 13131 ft 345 kts 47°
2026-05-06 03:30 35.49249 -115.87774 13004 ft 333 kts 47°
2026-05-06 03:31 35.50759 -115.85692 12989 ft 319 kts 47°
2026-05-06 03:31 35.52202 -115.83694 12983 ft 306 kts 47°
2026-05-06 03:31 35.53123 -115.82420 12985 ft 297 kts 47°
2026-05-06 03:31 35.54477 -115.80546 12971 ft 291 kts 47°
2026-05-06 03:32 35.55815 -115.78691 12944 ft 290 kts 47°
2026-05-06 03:32 35.57153 -115.76837 12938 ft 290 kts 47°
2026-05-06 03:32 35.58493 -115.74979 12928 ft 290 kts 47°
2026-05-06 03:32 35.59848 -115.73140 12929 ft 290 kts 46°
2026-05-06 03:33 35.61207 -115.71309 12937 ft 290 kts 46°
2026-05-06 03:33 35.62565 -115.69476 12944 ft 290 kts 46°
2026-05-06 03:33 35.63923 -115.67641 12961 ft 290 kts 46°
2026-05-06 03:33 35.65280 -115.65807 12953 ft 290 kts 46°
2026-05-06 03:34 35.66633 -115.63977 12956 ft 290 kts 46°
2026-05-06 03:34 35.67989 -115.62139 12951 ft 289 kts 46°
2026-05-06 03:34 35.69341 -115.60308 12944 ft 289 kts 46°
2026-05-06 03:34 35.70695 -115.58473 12956 ft 289 kts 46°
2026-05-06 03:35 35.72039 -115.56653 12954 ft 284 kts 45°
2026-05-06 03:35 35.73562 -115.55187 12957 ft 276 kts 30°
2026-05-06 03:35 35.75146 -115.54037 12959 ft 276 kts 30°
2026-05-06 03:35 35.76802 -115.52842 12952 ft 276 kts 30°
2026-05-06 03:36 35.78463 -115.51655 12959 ft 276 kts 30°
2026-05-06 03:36 35.80131 -115.50474 12961 ft 275 kts 30°
2026-05-06 03:36 35.81779 -115.49312 12948 ft 275 kts 30°
2026-05-06 03:36 35.83442 -115.48144 12960 ft 275 kts 29°
2026-05-06 03:37 35.85104 -115.46976 12955 ft 275 kts 29°
2026-05-06 03:37 35.86767 -115.45808 12952 ft 275 kts 30°
2026-05-06 03:37 35.88434 -115.44637 12944 ft 275 kts 29°
2026-05-06 03:37 35.90092 -115.43472 12942 ft 275 kts 29°
2026-05-06 03:38 35.91756 -115.42311 12948 ft 275 kts 29°
2026-05-06 03:38 35.93423 -115.41149 12784 ft 275 kts 29°
2026-05-06 03:38 35.95100 -115.39978 12148 ft 279 kts 29°
2026-05-06 03:38 35.96797 -115.38792 11616 ft 282 kts 29°
2026-05-06 03:39 35.98512 -115.37593 11185 ft 284 kts 29°
2026-05-06 03:39 36.00125 -115.36222 10977 ft 278 kts 46°
2026-05-06 03:39 36.01117 -115.34219 10891 ft 275 kts 70°
2026-05-06 03:39 36.01367 -115.31877 10595 ft 278 kts 90°
2026-05-06 03:40 36.01255 -115.29492 10344 ft 278 kts 90°
2026-05-06 03:40 36.01144 -115.27189 10163 ft 266 kts 91°
2026-05-06 03:40 36.01029 -115.24972 9987 ft 252 kts 91°
2026-05-06 03:40 36.00915 -115.22858 9823 ft 244 kts 91°
2026-05-06 03:41 36.00800 -115.20769 9662 ft 245 kts 91°
2026-05-06 03:41 36.00682 -115.18670 9494 ft 245 kts 91°
2026-05-06 03:41 36.00563 -115.16578 9341 ft 244 kts 91°
2026-05-06 03:41 36.00443 -115.14490 9180 ft 244 kts 91°
2026-05-06 03:42 36.00324 -115.12403 9031 ft 243 kts 91°
2026-05-06 03:42 36.00204 -115.10318 8938 ft 243 kts 91°
2026-05-06 03:42 36.00082 -115.08185 8952 ft 258 kts 91°
2026-05-06 03:42 35.99959 -115.05919 8919 ft 269 kts 89°
2026-05-06 03:43 35.99937 -115.03582 8926 ft 274 kts 88°
2026-05-06 03:43 35.99919 -115.01216 8932 ft 276 kts 88°
2026-05-06 03:43 35.99921 -114.98845 8923 ft 276 kts 85°
2026-05-06 03:43 36.00107 -114.96496 8914 ft 275 kts 86°
2026-05-06 03:44 36.00052 -114.94133 8923 ft 276 kts 84°
2026-05-06 03:44 36.00620 -114.91939 8725 ft 269 kts 51°
2026-05-06 03:44 36.01987 -114.90424 8183 ft 265 kts 26°
2026-05-06 03:44 36.03716 -114.89783 7602 ft 264 kts
2026-05-06 03:45 36.05519 -114.90121 7036 ft 264 kts 336°
2026-05-06 03:45 36.07082 -114.91393 6205 ft 274 kts 311°
2026-05-06 03:45 36.08062 -114.93410 5582 ft 274 kts 285°
2026-05-06 03:45 36.08255 -114.95663 5153 ft 262 kts 261°
2026-05-06 03:46 36.07742 -114.97760 4739 ft 243 kts 248°
2026-05-06 03:46 36.07355 -114.99690 4342 ft 228 kts 266°
2026-05-06 03:46 36.07358 -115.01593 3987 ft 213 kts 269°
2026-05-06 03:46 36.07366 -115.03322 3757 ft 191 kts 268°
2026-05-06 03:47 36.07365 -115.04302 3536 ft 184 kts 268°
2026-05-06 03:47 36.07365 -115.05107 3464 ft 169 kts 268°
2026-05-06 03:47 36.07347 -115.06506 3039 ft 161 kts 266°
2026-05-06 03:47 36.07345 -115.07866 2823 ft 159 kts 267°
2026-05-06 03:48 36.07371 -115.09216 2576 ft 156 kts 268°
2026-05-06 03:48 36.07394 -115.10562 2338 ft 156 kts 266°
2026-05-06 03:48 36.07371 -115.11839 2169 ft 141 kts 265°
2026-05-06 03:48 36.07369 -115.13020 2075 ft 129 kts 266°
2026-05-06 03:49 36.07362 -115.13922 2101 ft 74 kts 271°
2026-05-06 03:49 36.07393 -115.14368 2120 ft 40 kts 286°
2026-05-06 03:49 36.07434 -115.14506 2123 ft 15 kts 297°
2026-05-06 03:49 36.07490 -115.14622 2128 ft 8 kts 313°
2026-05-06 03:50 36.07510 -115.14641 2130 ft 4 kts 330°
2026-05-06 03:50 36.07524 -115.14648 2132 ft 0 kts 342°
2026-05-06 03:51 36.07530 -115.14650 2132 ft 5 kts 348°
2026-05-06 03:51 36.07641 -115.14656 2134 ft 24 kts
2026-05-06 03:51 36.07812 -115.14713 2132 ft 23 kts 329°
2026-05-06 03:52 36.07955 -115.14745 2131 ft 17 kts
2026-05-06 03:52 36.07986 -115.14710 2129 ft 0 kts 55°